This is the latest recevied weather packets stored in our database for station/object OE6PLD-13. If no packets are shown the sender has not sent any weather packets the latest 1 day(s).
| Time | Temp. | Humidity | Pressure | Rain* | Wind** | Luminosity | Snow |
|---|---|---|---|---|---|---|---|
| 1778023848 | 11.67° C | 85% | 1013.1 hPa | 0.76 mm | - | 0 W/m² | - |
| 1778022748 | 11.67° C | 83% | 1013.1 hPa | 0.76 mm | - | 0 W/m² | - |
| 1778022381 | 12.22° C | 82% | 1013 hPa | 0.76 mm | - | 0 W/m² | - |
| 1778022198 | 12.22° C | 82% | 1013.1 hPa | 0.76 mm | - | 0 W/m² | - |
| 1778021648 | 13.33° C | 78% | 1013.2 hPa | 0.76 mm | - | 0 W/m² | - |
| 1778021281 | 14.44° C | 76% | 1013 hPa | 0.76 mm | - | 0 W/m² | - |
| 1778020364 | 15° C | 74% | 1012.8 hPa | 0.76 mm | - | 0 W/m² | - |
| 1778019997 | 15° C | 74% | 1012.9 hPa | 0.76 mm | - | 0 W/m² | - |
| 1778019814 | 15° C | 74% | 1012.9 hPa | 0.76 mm | - | 0 W/m² | - |
| 1778019264 | 15° C | 74% | 1012.9 hPa | 0.76 mm | - | 0 W/m² | - |
| 1778018897 | 15° C | 74% | 1012.9 hPa | 0.76 mm | - | 0 W/m² | - |
| 1778018347 | 14.44° C | 75% | 1012.9 hPa | 0.76 mm | - | 0 W/m² | - |
| 1778017797 | 15° C | 74% | 1013.1 hPa | 0.76 mm | - | 0 W/m² | - |
| 1778017247 | 14.44° C | 75% | 1012.9 hPa | 0.76 mm | - | 0 W/m² | - |
| 1778016697 | 14.44° C | 76% | 1012.9 hPa | 0.76 mm | - | 0 W/m² | - |
| 1778016147 | 13.89° C | 75% | 1012.9 hPa | 0.76 mm | - | 0 W/m² | - |
| 1778015780 | 14.44° C | 74% | 1013 hPa | 0.76 mm | - | 0 W/m² | - |
| 1778015230 | 15° C | 73% | 1013 hPa | 0.76 mm | - | 0 W/m² | - |
| 1778015047 | 15° C | 73% | 1013 hPa | 0.76 mm | - | 0 W/m² | - |
| 1778014130 | 15° C | 73% | 1012.9 hPa | 0.76 mm | - | 0 W/m² | - |
| 1778013030 | 15° C | 71% | 1013.1 hPa | 0.76 mm | - | 0 W/m² | - |
| 1778012480 | 15.56° C | 71% | 1013.4 hPa | 0.76 mm | - | 0 W/m² | - |
| 1778011930 | 15.56° C | 69% | 1013.3 hPa | 0.76 mm | - | 0 W/m² | - |
| 1778011013 | 16.11° C | 68% | 1013.1 hPa | 0.76 mm | - | 0 W/m² | - |
| 1778010096 | 16.11° C | 68% | 1013.2 hPa | 0.76 mm | - | 0 W/m² | - |
* Rain latest hour (hover to see other rain measurements)
** Current wind speed in m/s (hover to see current wind gust speed)